| time (UTC) | temp F | wind direction | speed knots | gust knots | rain 1hr in | rain 24hr in | rain mn in | humidity % | barometer mb |
| 20260906205913 | 83 | 70 | 4.3 | 10.4 | 0.00 | 0.22 | 0.22 | 67 | 1016.4 |
| 20260906205409 | 83 | 23 | 0.9 | 7.8 | 0.00 | 0.22 | 0.22 | 69 | 1016.2 |
| 20260906204905 | 82 | 80 | 5.2 | 9.6 | 0.00 | 0.22 | 0.22 | 69 | 1016.3 |
| 20260906204403 | 81 | 117 | 7.8 | 13.0 | 0.00 | 0.22 | 0.22 | 70 | 1016.4 |
| 20260906203902 | 82 | 128 | 6.1 | 10.4 | 0.00 | 0.22 | 0.22 | 70 | 1016.8 |
| 20260906203353 | 82 | 134 | 9.6 | 11.3 | 0.00 | 0.22 | 0.22 | 70 | 1016.8 |
| 20260906202850 | 82 | 137 | 5.2 | 7.8 | 0.00 | 0.22 | 0.22 | 69 | 1017.0 |
| 20260906202350 | 81 | 125 | 5.2 | 7.0 | 0.00 | 0.22 | 0.22 | 73 | 1017.1 |
| 20260906201849 | 80 | 117 | 13.0 | 13.0 | 0.00 | 0.22 | 0.22 | 72 | 1017.1 |
| 20260906201344 | 79 | 104 | 2.6 | 8.7 | 0.00 | 0.22 | 0.22 | 74 | 1017.3 |
| 20260906200839 | 78 | 145 | 5.2 | 12.2 | 0.00 | 0.22 | 0.22 | 77 | 1017.1 |
| 20260906200336 | 78 | 125 | 7.8 | 13.0 | 0.00 | 0.22 | 0.22 | 78 | 1017.4 |
| 20260906195830 | 79 | 116 | 8.7 | 12.2 | 0.00 | 0.22 | 0.22 | 77 | 1017.6 |
| 20260906195327 | 80 | 138 | 6.1 | 8.7 | 0.00 | 0.22 | 0.22 | 74 | 1017.4 |
| 20260906194822 | 79 | 104 | 5.2 | 7.0 | 0.00 | 0.22 | 0.22 | 76 | 1017.6 |
| 20260906194318 | 78 | 135 | 7.0 | 9.6 | 0.00 | 0.22 | 0.22 | 78 | 1017.7 |
| 20260906193813 | 78 | 38 | 2.6 | 7.0 | 0.00 | 0.22 | 0.22 | 79 | 1017.5 |
| 20260906193308 | 74 | 130 | 3.5 | 9.6 | 0.00 | 0.22 | 0.22 | 91 | 1017.5 |
| 20260906192803 | 73 | 133 | 2.6 | 9.6 | 0.00 | 0.22 | 0.22 | 94 | 1017.7 |
| 20260906192258 | 73 | 46 | 4.3 | 5.2 | 0.00 | 0.22 | 0.22 | 94 | 1018.0 |
| 20260906191757 | 73 | 71 | 0.0 | 3.5 | 0.00 | 0.22 | 0.22 | 94 | 1018.5 |
| 20260906191251 | 72 | 68 | 3.5 | 7.8 | 0.00 | 0.22 | 0.22 | 94 | 1018.5 |
| 20260906190746 | 71 | 206 | 1.7 | 4.3 | 0.00 | 0.22 | 0.22 | 94 | 1018.8 |
| 20260906190240 | 71 | 206 | 4.3 | 6.1 | 0.12 | 0.22 | 0.22 | 96 | 1018.8 |
| 20260906185739 | 70 | 204 | 4.3 | 7.8 | 0.76 | 0.22 | 0.22 | 97 | 1018.6 |
| 20260906185238 | 70 | 215 | 3.5 | 7.8 | 1.06 | 0.18 | 0.18 | 97 | 1018.2 |
| 20260906184733 | 71 | 212 | 5.2 | 16.5 | 0.17 | 0.03 | 0.03 | 95 | 1018.3 |
| 20260906184229 | 72 | 150 | 7.0 | 14.8 | 0.02 | 0.00 | 0.00 | 95 | 1018.7 |
| 20260906183724 | 73 | 157 | 3.5 | 12.2 | 0.00 | 0.00 | 0.00 | 94 | 1019.0 |
| 20260906183221 | 73 | 148 | 4.3 | 7.8 | 0.00 | 0.00 | 0.00 | 93 | 1018.7 |
| 20260906182720 | 75 | 147 | 7.0 | 16.5 | 0.00 | 0.00 | 0.00 | 89 | 1018.6 |
| 20260906182216 | 78 | 102 | 4.3 | 21.7 | 0.00 | 0.00 | 0.00 | 81 | 1018.2 |
| 20260906181711 | 80 | 124 | 5.2 | 9.6 | 0.00 | 0.00 | 0.00 | 77 | 1017.7 |
| 20260906181208 | 83 | 136 | 7.0 | 11.3 | 0.00 | 0.00 | 0.00 | 71 | 1017.7 |
| 20260906180708 | 84 | 105 | 1.7 | 9.6 | 0.00 | 0.00 | 0.00 | 67 | 1017.9 |
| 20260906180203 | 84 | 141 | 2.6 | 9.6 | 0.00 | 0.00 | 0.00 | 66 | 1017.9 |
| 20260906175700 | 83 | 141 | 4.3 | 11.3 | 0.00 | 0.00 | 0.00 | 71 | 1017.9 |
| 20260906175156 | 83 | 349 | 1.7 | 11.3 | 0.00 | 0.00 | 0.00 | 71 | 1017.9 |
| 20260906174654 | 82 | 19 | 3.5 | 7.8 | 0.00 | 0.00 | 0.00 | 76 | 1018.2 |
| 20260906174149 | 81 | 53 | 2.6 | 12.2 | 0.00 | 0.00 | 0.00 | 77 | 1018.3 |
| 20260906173645 | 80 | 41 | 1.7 | 6.1 | 0.00 | 0.00 | 0.00 | 77 | 1018.0 |
| 20260906173140 | 78 | 49 | 4.3 | 7.0 | 0.00 | 0.00 | 0.00 | 82 | 1018.6 |
| 20260906172639 | 76 | 19 | 1.7 | 13.0 | 0.00 | 0.00 | 0.00 | 85 | 1018.9 |
| 20260906172135 | 77 | 307 | 5.2 | 5.2 | 0.00 | 0.00 | 0.00 | 84 | 1018.9 |
| 20260906171634 | 76 | 19 | 1.7 | 4.3 | 0.00 | 0.00 | 0.00 | 84 | 1018.9 |
| 20260906171130 | 75 | 16 | 3.5 | 7.8 | 0.00 | 0.00 | 0.00 | 85 | 1018.5 |
| 20260906170626 | 75 | 2 | 7.0 | 8.7 | 0.00 | 0.00 | 0.00 | 84 | 1018.1 |
| 20260906170125 | 77 | 320 | 13.0 | 15.6 | 0.00 | 0.00 | 0.00 | 81 | 1018.3 |
| 20260906165622 | 81 | 14 | 0.0 | 2.6 | 0.00 | 0.00 | 0.00 | 79 | 1018.6 |
| 20260906165117 | 82 | 337 | 1.7 | 2.6 | 0.00 | 0.00 | 0.00 | 77 | 1018.5 |
| 20260906164616 | 84 | 117 | 1.7 | 2.6 | 0.00 | 0.00 | 0.00 | 76 | 1018.2 |
| 20260906164112 | 84 | 212 | 0.0 | 3.5 | 0.00 | 0.00 | 0.00 | 75 | 1018.0 |
| 20260906163607 | 84 | 132 | 1.7 | 2.6 | 0.00 | 0.00 | 0.00 | 75 | 1017.9 |
| 20260906163103 | 84 | 270 | 0.0 | 0.9 | 0.00 | 0.00 | 0.00 | 75 | 1018.0 |
| 20260906162600 | 84 | 142 | 1.7 | 4.3 | 0.00 | 0.00 | 0.00 | 74 | 1018.0 |
| 20260906162054 | 84 | 157 | 0.0 | 1.7 | 0.00 | 0.00 | 0.00 | 74 | 1017.9 |
| 20260906161544 | 83 | 157 | 2.6 | 2.6 | 0.00 | 0.00 | 0.00 | 76 | 1017.5 |
| 20260906161043 | 81 | 139 | 1.7 | 2.6 | 0.00 | 0.00 | 0.00 | 79 | 1017.4 |
| 20260906160542 | 81 | 132 | 1.7 | 2.6 | 0.00 | 0.00 | 0.00 | 79 | 1017.2 |
| 20260906160041 | 81 | 93 | 2.6 | 2.6 | 0.00 | 0.00 | 0.00 | 78 | 1017.0 |
| 20260906155538 | 82 | 135 | 1.7 | 2.6 | 0.00 | 0.00 | 0.00 | 76 | 1017.1 |
| 20260906155034 | 81 | 154 | 0.9 | 3.5 | 0.00 | 0.00 | 0.00 | 77 | 1017.0 |
| 20260906154524 | 80 | 270 | 0.0 | 0.9 | 0.00 | 0.00 | 0.00 | 79 | 1017.2 |
| 20260906154022 | 79 | 352 | 0.0 | 0.0 | 0.00 | 0.00 | 0.00 | 80 | 1017.1 |
| 20260906153521 | 79 | 261 | 0.0 | 0.0 | 0.00 | 0.00 | 0.00 | 80 | 1017.2 |
| 20260906153017 | 79 | 123 | 0.0 | 1.7 | 0.00 | 0.00 | 0.00 | 80 | 1017.2 |
| 20260906152511 | 79 | 188 | 0.0 | 1.7 | 0.00 | 0.00 | 0.00 | 80 | 1017.0 |
| 20260906152010 | 77 | 234 | 0.0 | 1.7 | 0.00 | 0.00 | 0.00 | 82 | 1016.9 |
| 20260906151506 | 77 | 123 | 0.0 | 3.5 | 0.00 | 0.00 | 0.00 | 83 | 1016.7 |
| 20260906151001 | 79 | 120 | 0.9 | 1.7 | 0.00 | 0.00 | 0.00 | 82 | 1016.9 |
| 20260906150456 | 76 | 192 | 0.0 | 0.9 | 0.00 | 0.00 | 0.00 | 85 | 1016.9 |
| 20260906145956 | 76 | 187 | 0.9 | 1.7 | 0.00 | 0.00 | 0.00 | 85 | 1017.1 |
| 20260906145455 | 76 | 199 | 0.0 | 1.7 | 0.00 | 0.00 | 0.00 | 85 | 1017.0 |
| 20260906144956 | 76 | 220 | 0.0 | 1.7 | 0.00 | 0.00 | 0.00 | 85 | 1017.2 |
| 20260906144450 | 77 | 278 | 0.9 | 2.6 | 0.00 | 0.00 | 0.00 | 84 | 1017.2 |
| 20260906143945 | 78 | 346 | 0.0 | 2.6 | 0.00 | 0.00 | 0.00 | 84 | 1017.0 |
| 20260906143441 | 77 | 236 | 0.0 | 2.6 | 0.00 | 0.00 | 0.00 | 85 | 1017.1 |
| 20260906142937 | 75 | 209 | 0.9 | 1.7 | 0.00 | 0.00 | 0.00 | 88 | 1017.1 |
| 20260906142431 | 74 | 328 | 0.0 | 1.7 | 0.00 | 0.00 | 0.00 | 90 | 1017.1 |
| 20260906141926 | 73 | 311 | 1.7 | 2.6 | 0.00 | 0.00 | 0.00 | 91 | 1017.2 |
| 20260906141425 | 73 | 174 | 0.9 | 0.9 | 0.00 | 0.00 | 0.00 | 91 | 1017.4 |
| 20260906140920 | 73 | 352 | 1.7 | 2.6 | 0.00 | 0.00 | 0.00 | 92 | 1017.5 |
| 20260906140414 | 71 | 353 | 0.9 | 3.5 | 0.00 | 0.00 | 0.00 | 94 | 1017.5 |
| 20260906135912 | 71 | 0 | 1.7 | 2.6 | 0.00 | 0.00 | 0.00 | 94 | 1017.6 |
| 20260906135406 | 71 | 353 | 0.0 | 1.7 | 0.00 | 0.00 | 0.00 | 94 | 1017.7 |
| 20260906134902 | 71 | 352 | 1.7 | 2.6 | 0.00 | 0.00 | 0.00 | 94 | 1017.8 |
| 20260906134357 | 72 | 270 | 1.7 | 3.5 | 0.00 | 0.00 | 0.00 | 94 | 1017.9 |
| 20260906133852 | 71 | 90 | 0.0 | 0.0 | 0.00 | 0.00 | 0.00 | 96 | 1017.9 |
| 20260906133348 | 70 | 270 | 0.0 | 2.6 | 0.00 | 0.00 | 0.00 | 96 | 1017.8 |
| 20260906132843 | 69 | 334 | 1.7 | 2.6 | 0.00 | 0.00 | 0.00 | 96 | 1017.8 |
| 20260906132338 | 69 | 292 | 0.0 | 2.6 | 0.00 | 0.00 | 0.00 | 96 | 1018.1 |
| 20260906131834 | 69 | 195 | 0.0 | 5.2 | 0.00 | 0.00 | 0.00 | 96 | 1017.6 |
| 20260906131329 | 69 | 230 | 4.3 | 7.0 | 0.00 | 0.00 | 0.00 | 96 | 1017.7 |
| 20260906130825 | 70 | 199 | 3.5 | 5.2 | 0.00 | 0.00 | 0.00 | 97 | 1017.9 |
| 20260906130324 | 69 | 168 | 4.3 | 5.2 | 0.00 | 0.00 | 0.00 | 96 | 1018.0 |
| 20260906125824 | 69 | 169 | 1.7 | 2.6 | 0.00 | 0.00 | 0.00 | 96 | 1018.0 |
| 20260906125321 | 69 | 206 | 0.9 | 5.2 | 0.00 | 0.00 | 0.00 | 96 | 1017.9 |
| 20260906124816 | 69 | 250 | 2.6 | 2.6 | 0.00 | 0.00 | 0.00 | 96 | 1017.5 |
| 20260906124312 | 69 | 199 | 4.3 | 16.5 | 0.00 | 0.00 | 0.00 | 97 | 1017.5 |
| 20260906123811 | 69 | 259 | 4.3 | 10.4 | 0.00 | 0.00 | 0.00 | 98 | 1017.9 |
| 20260906123306 | 68 | 223 | 6.1 | 10.4 | 0.00 | 0.00 | 0.00 | 98 | 1017.6 |
| 20260906122806 | 68 | 126 | 5.2 | 11.3 | 0.00 | 0.00 | 0.00 | 98 | 1016.7 |
| 20260906122301 | 68 | 118 | 3.5 | 23.5 | 0.00 | 0.00 | 0.00 | 98 | 1016.0 |
| 20260906121757 | 68 | 134 | 3.5 | 17.4 | 0.00 | 0.00 | 0.00 | 98 | 1016.0 |
| 20260906121248 | 67 | 149 | 10.4 | 20.9 | 0.00 | 0.00 | 0.00 | 98 | 1016.5 |
| 20260906120743 | 68 | 133 | 5.2 | 13.0 | 0.00 | 0.00 | 0.00 | 98 | 1017.0 |
| 20260906120240 | 68 | 123 | 6.1 | 9.6 | 0.00 | 0.00 | 0.00 | 98 | 1017.5 |
| 20260906115735 | 67 | 90 | 6.1 | 10.4 | 0.00 | 0.00 | 0.00 | 98 | 1017.3 |
| 20260906115230 | 66 | 75 | 3.5 | 5.2 | 0.00 | 0.00 | 0.00 | 98 | 1017.4 |
| 20260906114729 | 67 | 63 | 2.6 | 4.3 | 0.00 | 0.00 | 0.00 | 98 | 1017.7 |
| 20260906114224 | 66 | 94 | 2.6 | 2.6 | 0.00 | 0.00 | 0.00 | 98 | 1017.8 |
| 20260906113720 | 66 | 107 | 2.6 | 4.3 | 0.00 | 0.00 | 0.00 | 98 | 1017.8 |
| 20260906113218 | 66 | 123 | 3.5 | 5.2 | 0.00 | 0.00 | 0.00 | 98 | 1017.9 |
| 20260906112713 | 66 | 124 | 3.5 | 4.3 | 0.00 | 0.00 | 0.00 | 98 | 1018.1 |
| 20260906112210 | 66 | 128 | 2.6 | 2.6 | 0.00 | 0.00 | 0.00 | 98 | 1018.0 |
| 20260906111709 | 66 | 68 | 1.7 | 3.5 | 0.00 | 0.00 | 0.00 | 98 | 1018.0 |
| 20260906111204 | 66 | 129 | 2.6 | 2.6 | 0.00 | 0.00 | 0.00 | 98 | 1018.1 |
| 20260906110659 | 66 | 121 | 1.7 | 1.7 | 0.00 | 0.00 | 0.00 | 98 | 1018.3 |
| 20260906110154 | 66 | 157 | 0.0 | 1.7 | 0.00 | 0.00 | 0.00 | 98 | 1017.9 |
| 20260906105648 | 66 | 128 | 1.7 | 2.6 | 0.00 | 0.00 | 0.00 | 98 | 1017.6 |
| 20260906105144 | 66 | 140 | 2.6 | 2.6 | 0.00 | 0.00 | 0.00 | 98 | 1017.6 |
| 20260906104643 | 67 | 144 | 1.7 | 2.6 | 0.00 | 0.00 | 0.00 | 98 | 1017.7 |
| 20260906104142 | 66 | 95 | 1.7 | 3.5 | 0.00 | 0.00 | 0.00 | 98 | 1017.6 |
| 20260906103640 | 66 | 114 | 0.0 | 2.6 | 0.00 | 0.00 | 0.00 | 98 | 1017.5 |
| 20260906103136 | 66 | 103 | 0.9 | 3.5 | 0.00 | 0.00 | 0.00 | 98 | 1017.7 |
| 20260906102631 | 67 | 116 | 2.6 | 6.1 | 0.00 | 0.00 | 0.00 | 98 | 1017.6 |
| 20260906102125 | 67 | 120 | 2.6 | 3.5 | 0.00 | 0.00 | 0.00 | 98 | 1017.4 |
| 20260906101620 | 67 | 51 | 2.6 | 3.5 | 0.00 | 0.00 | 0.00 | 98 | 1017.2 |
| 20260906101120 | 66 | 57 | 1.7 | 1.7 | 0.00 | 0.00 | 0.00 | 98 | 1017.3 |
| 20260906100616 | 66 | 45 | 1.7 | 1.7 | 0.00 | 0.00 | 0.00 | 98 | 1017.4 |
| 20260906100111 | 66 | 84 | 1.7 | 3.5 | 0.00 | 0.00 | 0.00 | 98 | 1017.5 |
| 20260906095610 | 66 | 99 | 0.0 | 0.9 | 0.00 | 0.00 | 0.00 | 97 | 1017.6 |
| 20260906095106 | 66 | 90 | 0.0 | 1.7 | 0.00 | 0.00 | 0.00 | 97 | 1017.4 |
| 20260906094605 | 66 | 99 | 0.0 | 2.6 | 0.00 | 0.00 | 0.00 | 97 | 1017.5 |
| 20260906094101 | 66 | 105 | 0.0 | 2.6 | 0.00 | 0.00 | 0.00 | 97 | 1017.6 |
| 20260906093556 | 66 | 95 | 1.7 | 1.7 | 0.00 | 0.00 | 0.00 | 97 | 1017.6 |
| 20260906093051 | 66 | 98 | 1.7 | 2.6 | 0.00 | 0.00 | 0.00 | 97 | 1017.5 |
| 20260906092547 | 66 | 135 | 1.7 | 2.6 | 0.00 | 0.00 | 0.00 | 97 | 1017.5 |
| 20260906092041 | 66 | 90 | 0.0 | 0.0 | 0.00 | 0.00 | 0.00 | 97 | 1017.6 |
| 20260906091537 | 66 | 99 | 0.0 | 0.0 | 0.00 | 0.00 | 0.00 | 97 | 1017.4 |
| 20260906091033 | 66 | 114 | 1.7 | 1.7 | 0.00 | 0.00 | 0.00 | 96 | 1017.5 |
| 20260906090528 | 66 | 106 | 0.9 | 0.9 | 0.00 | 0.00 | 0.00 | 96 | 1017.4 |
| 20260906090023 | 65 | 90 | 0.0 | 0.0 | 0.00 | 0.00 | 0.00 | 96 | 1017.3 |
| 20260906085522 | 66 | 0 | 0.0 | 0.9 | 0.00 | 0.00 | 0.00 | 96 | 1017.4 |
| 20260906085021 | 66 | 73 | 1.7 | 2.6 | 0.00 | 0.00 | 0.00 | 96 | 1017.4 |
| 20260906084516 | 66 | 106 | 0.0 | 0.9 | 0.00 | 0.00 | 0.00 | 96 | 1017.5 |
| 20260906084015 | 66 | 90 | 0.0 | 0.9 | 0.00 | 0.00 | 0.00 | 96 | 1017.6 |
| 20260906083511 | 66 | 120 | 1.7 | 1.7 | 0.00 | 0.00 | 0.00 | 96 | 1017.5 |
| 20260906083010 | 66 | 106 | 0.9 | 1.7 | 0.00 | 0.00 | 0.00 | 95 | 1017.4 |
| 20260906082505 | 66 | 117 | 2.6 | 3.5 | 0.00 | 0.00 | 0.00 | 95 | 1017.6 |
| 20260906082001 | 66 | 119 | 2.6 | 2.6 | 0.00 | 0.00 | 0.00 | 95 | 1017.4 |
| 20260906081456 | 65 | 102 | 1.7 | 1.7 | 0.00 | 0.00 | 0.00 | 94 | 1017.6 |
| 20260906080952 | 66 | 180 | 0.0 | 2.6 | 0.00 | 0.00 | 0.00 | 94 | 1017.8 |
| 20260906080448 | 65 | 151 | 0.0 | 0.9 | 0.00 | 0.00 | 0.00 | 94 | 1017.5 |
| 20260906075943 | 66 | 157 | 0.9 | 1.7 | 0.00 | 0.00 | 0.00 | 94 | 1017.6 |
| 20260906075438 | 67 | 145 | 0.9 | 1.7 | 0.00 | 0.00 | 0.00 | 94 | 1017.4 |
| 20260906074933 | 67 | 139 | 0.0 | 1.7 | 0.00 | 0.00 | 0.00 | 94 | 1017.5 |
| 20260906074433 | 67 | 130 | 2.6 | 2.6 | 0.00 | 0.00 | 0.00 | 94 | 1017.4 |
| 20260906073931 | 67 | 100 | 1.7 | 3.5 | 0.00 | 0.00 | 0.00 | 94 | 1017.4 |
| 20260906073426 | 67 | 121 | 1.7 | 2.6 | 0.00 | 0.00 | 0.00 | 93 | 1017.3 |
| 20260906072923 | 68 | 172 | 0.0 | 0.9 | 0.00 | 0.00 | 0.00 | 93 | 1017.3 |
| 20260906072418 | 68 | 123 | 1.7 | 4.3 | 0.00 | 0.00 | 0.00 | 93 | 1017.3 |
| 20260906071914 | 68 | 124 | 2.6 | 2.6 | 0.00 | 0.00 | 0.00 | 93 | 1017.2 |
| 20260906071409 | 68 | 79 | 1.7 | 2.6 | 0.00 | 0.00 | 0.00 | 93 | 1017.1 |
| 20260906070905 | 68 | 83 | 2.6 | 2.6 | 0.00 | 0.00 | 0.00 | 93 | 1017.7 |
| 20260906070401 | 68 | 115 | 1.7 | 3.5 | 0.00 | 0.00 | 0.00 | 92 | 1017.5 |
| 20260906065856 | 68 | 110 | 3.5 | 3.5 | 0.00 | 0.00 | 0.00 | 92 | 1017.3 |
| 20260906065350 | 68 | 108 | 1.7 | 4.3 | 0.00 | 0.00 | 0.00 | 92 | 1017.3 |
| 20260906064846 | 68 | 112 | 1.7 | 3.5 | 0.00 | 0.00 | 0.00 | 92 | 1017.5 |
| 20260906064343 | 68 | 124 | 4.3 | 5.2 | 0.00 | 0.00 | 0.00 | 91 | 1017.4 |
| 20260906063842 | 68 | 125 | 4.3 | 5.2 | 0.00 | 0.00 | 0.00 | 91 | 1017.6 |
| 20260906063338 | 68 | 124 | 4.3 | 4.3 | 0.00 | 0.00 | 0.00 | 91 | 1017.7 |
| 20260906062833 | 67 | 123 | 2.6 | 5.2 | 0.00 | 0.00 | 0.00 | 91 | 1017.6 |
| 20260906062332 | 67 | 82 | 2.6 | 3.5 | 0.00 | 0.00 | 0.00 | 91 | 1017.7 |
| 20260906061828 | 67 | 112 | 2.6 | 4.3 | 0.00 | 0.00 | 0.00 | 90 | 1017.8 |
| 20260906061324 | 67 | 132 | 4.3 | 4.3 | 0.00 | 0.00 | 0.00 | 90 | 1017.9 |
| 20260906060818 | 67 | 130 | 3.5 | 3.5 | 0.00 | 0.00 | 0.00 | 90 | 1018.1 |
| 20260906060317 | 67 | 171 | 1.7 | 3.5 | 0.00 | 0.00 | 0.00 | 90 | 1017.9 |
| 20260906055812 | 67 | 157 | 0.9 | 2.6 | 0.00 | 0.00 | 0.00 | 89 | 1017.9 |
| 20260906055307 | 68 | 132 | 1.7 | 1.7 | 0.00 | 0.00 | 0.00 | 89 | 1017.9 |
| 20260906054802 | 68 | 199 | 1.7 | 2.6 | 0.00 | 0.00 | 0.00 | 88 | 1017.9 |
| 20260906054258 | 69 | 95 | 1.7 | 2.6 | 0.00 | 0.00 | 0.00 | 88 | 1018.1 |
| 20260906053754 | 69 | 121 | 2.6 | 2.6 | 0.00 | 0.00 | 0.00 | 88 | 1018.0 |
| 20260906053250 | 69 | 133 | 2.6 | 2.6 | 0.00 | 0.00 | 0.00 | 89 | 1017.6 |
| 20260906052744 | 68 | 103 | 1.7 | 2.6 | 0.00 | 0.00 | 0.00 | 89 | 1017.6 |
| 20260906052240 | 68 | 90 | 1.7 | 1.7 | 0.00 | 0.00 | 0.00 | 89 | 1017.8 |
| 20260906051738 | 68 | 96 | 1.7 | 2.6 | 0.00 | 0.00 | 0.00 | 88 | 1017.8 |
| 20260906051237 | 68 | 90 | 0.0 | 1.7 | 0.00 | 0.00 | 0.00 | 87 | 1017.8 |
| 20260906050732 | 68 | 79 | 1.7 | 2.6 | 0.00 | 0.00 | 0.00 | 87 | 1017.8 |
| 20260906050227 | 68 | 90 | 0.0 | 0.9 | 0.00 | 0.00 | 0.00 | 86 | 1017.8 |
| 20260906045726 | 68 | 157 | 0.0 | 1.7 | 0.00 | 0.00 | 0.00 | 85 | 1017.8 |
| 20260906045221 | 69 | 154 | 0.0 | 1.7 | 0.00 | 0.00 | 0.00 | 86 | 1017.8 |
| 20260906044717 | 69 | 84 | 0.0 | 2.6 | 0.00 | 0.00 | 0.00 | 85 | 1018.0 |
| 20260906044212 | 69 | 131 | 0.0 | 1.7 | 0.00 | 0.00 | 0.00 | 84 | 1018.0 |
| 20260906043708 | 69 | 90 | 0.0 | 1.7 | 0.00 | 0.00 | 0.00 | 84 | 1017.8 |
| 20260906043204 | 70 | 109 | 0.9 | 1.7 | 0.00 | 0.00 | 0.00 | 84 | 1017.8 |
| 20260906042703 | 69 | 114 | 2.6 | 2.6 | 0.00 | 0.00 | 0.00 | 84 | 1017.7 |
| 20260906042157 | 69 | 97 | 0.9 | 1.7 | 0.00 | 0.00 | 0.00 | 84 | 1017.7 |
| 20260906041653 | 69 | 90 | 0.9 | 1.7 | 0.00 | 0.00 | 0.00 | 84 | 1017.5 |
| 20260906041148 | 69 | 90 | 0.9 | 2.6 | 0.00 | 0.00 | 0.00 | 83 | 1017.7 |
| 20260906040643 | 70 | 140 | 0.0 | 1.7 | 0.00 | 0.00 | 0.00 | 82 | 1017.6 |
| 20260906040139 | 70 | 121 | 1.7 | 2.6 | 0.00 | 0.00 | 0.00 | 82 | 1017.4 |
| 20260906035633 | 70 | 114 | 0.0 | 1.7 | 0.00 | 0.00 | 0.00 | 81 | 1017.6 |
| 20260906035129 | 71 | 79 | 1.7 | 1.7 | 0.00 | 0.00 | 0.00 | 81 | 1017.3 |
| 20260906034624 | 71 | 126 | 2.6 | 4.3 | 0.00 | 0.00 | 0.00 | 81 | 1017.4 |
| 20260906034118 | 71 | 140 | 1.7 | 1.7 | 0.00 | 0.00 | 0.00 | 81 | 1017.8 |
| 20260906033614 | 71 | 172 | 1.7 | 2.6 | 0.00 | 0.00 | 0.00 | 81 | 1017.6 |
| 20260906033109 | 71 | 108 | 2.6 | 2.6 | 0.00 | 0.00 | 0.00 | 81 | 1017.5 |
| 20260906032606 | 71 | 135 | 0.0 | 1.7 | 0.00 | 0.00 | 0.00 | 80 | 1017.5 |
| 20260906032105 | 71 | 119 | 2.6 | 4.3 | 0.00 | 0.00 | 0.00 | 79 | 1017.4 |
| 20260906031601 | 71 | 131 | 2.6 | 4.3 | 0.00 | 0.00 | 0.00 | 79 | 1017.5 |
| 20260906031056 | 71 | 90 | 0.9 | 0.9 | 0.00 | 0.00 | 0.00 | 78 | 1017.6 |
| 20260906030555 | 71 | 133 | 2.6 | 3.5 | 0.00 | 0.00 | 0.00 | 78 | 1017.3 |
| 20260906030055 | 72 | 77 | 2.6 | 2.6 | 0.00 | 0.00 | 0.00 | 77 | 1017.3 |
| 20260906025550 | 72 | 135 | 1.7 | 3.5 | 0.00 | 0.00 | 0.00 | 76 | 1017.1 |
| 20260906025048 | 73 | 114 | 4.3 | 4.3 | 0.00 | 0.00 | 0.00 | 76 | 1017.3 |
| 20260906024544 | 73 | 119 | 1.7 | 5.2 | 0.00 | 0.00 | 0.00 | 75 | 1017.3 |
| 20260906024043 | 73 | 144 | 1.7 | 4.3 | 0.00 | 0.00 | 0.00 | 74 | 1017.3 |
| 20260906023540 | 73 | 119 | 1.7 | 5.2 | 0.00 | 0.00 | 0.00 | 74 | 1017.4 |
| 20260906023034 | 73 | 7 | 1.7 | 4.3 | 0.00 | 0.00 | 0.00 | 74 | 1017.3 |
| 20260906022530 | 73 | 180 | 0.9 | 2.6 | 0.00 | 0.00 | 0.00 | 74 | 1017.2 |
| 20260906022025 | 73 | 180 | 0.0 | 0.0 | 0.00 | 0.00 | 0.00 | 74 | 1017.1 |
| 20260906021520 | 73 | 203 | 0.0 | 1.7 | 0.00 | 0.00 | 0.00 | 74 | 1016.9 |
| 20260906021014 | 73 | 151 | 0.0 | 1.7 | 0.00 | 0.00 | 0.00 | 73 | 1016.9 |
| 20260906020514 | 73 | 102 | 1.7 | 2.6 | 0.00 | 0.00 | 0.00 | 73 | 1016.5 |
| 20260906020013 | 74 | 114 | 1.7 | 5.2 | 0.00 | 0.00 | 0.00 | 72 | 1016.7 |
| 20260906015507 | 74 | 114 | 0.9 | 4.3 | 0.00 | 0.00 | 0.00 | 71 | 1016.5 |
| 20260906015007 | 75 | 119 | 1.7 | 3.5 | 0.00 | 0.00 | 0.00 | 71 | 1016.4 |
| 20260906014501 | 75 | 111 | 5.2 | 6.1 | 0.00 | 0.00 | 0.00 | 70 | 1016.3 |
| 20260906013957 | 76 | 117 | 3.5 | 4.3 | 0.00 | 0.00 | 0.00 | 69 | 1016.4 |
| 20260906013453 | 76 | 133 | 2.6 | 4.3 | 0.00 | 0.00 | 0.00 | 69 | 1016.5 |
| 20260906012948 | 76 | 143 | 1.7 | 7.8 | 0.00 | 0.00 | 0.00 | 68 | 1016.3 |
| 20260906012443 | 77 | 137 | 4.3 | 7.0 | 0.00 | 0.00 | 0.00 | 68 | 1016.4 |
| 20260906011942 | 78 | 123 | 2.6 | 8.7 | 0.00 | 0.00 | 0.00 | 67 | 1016.2 |
| 20260906011438 | 78 | 146 | 2.6 | 7.8 | 0.00 | 0.00 | 0.00 | 67 | 1016.0 |
| 20260906010933 | 79 | 135 | 4.3 | 7.0 | 0.00 | 0.00 | 0.00 | 65 | 1016.1 |
| 20260906010428 | 80 | 138 | 4.3 | 13.0 | 0.00 | 0.00 | 0.00 | 63 | 1016.0 |
| 20260906005924 | 81 | 141 | 6.1 | 10.4 | 0.00 | 0.00 | 0.00 | 59 | 1016.0 |
| 20260906005424 | 82 | 107 | 6.1 | 11.3 | 0.00 | 0.00 | 0.00 | 56 | 1016.1 |
| 20260906004922 | 83 | 120 | 2.6 | 6.1 | 0.00 | 0.00 | 0.00 | 56 | 1015.9 |
| 20260906004417 | 84 | 135 | 1.7 | 2.6 | 0.00 | 0.00 | 0.00 | 54 | 1015.6 |
| 20260906003912 | 84 | 103 | 0.0 | 3.5 | 0.00 | 0.00 | 0.00 | 55 | 1015.7 |
| 20260906003408 | 85 | 180 | 0.0 | 1.7 | 0.00 | 0.00 | 0.00 | 54 | 1015.6 |
| 20260906002903 | 85 | 209 | 0.0 | 1.7 | 0.00 | 0.00 | 0.00 | 53 | 1015.5 |
| 20260906002402 | 85 | 123 | 1.7 | 2.6 | 0.00 | 0.00 | 0.00 | 54 | 1015.8 |
| 20260906001858 | 85 | 135 | 1.7 | 3.5 | 0.00 | 0.00 | 0.00 | 53 | 1015.8 |
| 20260906001353 | 85 | 116 | 2.6 | 4.3 | 0.00 | 0.00 | 0.00 | 53 | 1015.7 |
| 20260906000848 | 85 | 126 | 0.0 | 4.3 | 0.00 | 0.00 | 0.00 | 53 | 1015.8 |
| 20260906000348 | 85 | 141 | 2.6 | 6.1 | 0.00 | 0.00 | 0.00 | 53 | 1015.9 |
| 20260905235843 | 86 | 132 | 3.5 | 7.0 | 0.00 | 0.00 | 0.00 | 52 | 1015.8 |
| 20260905235337 | 86 | 141 | 2.6 | 7.8 | 0.00 | 0.00 | 0.00 | 52 | 1016.0 |
| 20260905234833 | 86 | 123 | 4.3 | 7.8 | 0.00 | 0.00 | 0.00 | 54 | 1016.1 |
| 20260905234328 | 87 | 135 | 3.5 | 6.1 | 0.00 | 0.00 | 0.00 | 56 | 1016.2 |
| 20260905233823 | 87 | 134 | 3.5 | 9.6 | 0.00 | 0.00 | 0.00 | 56 | 1016.2 |
| 20260905233318 | 86 | 141 | 5.2 | 14.8 | 0.00 | 0.00 | 0.00 | 58 | 1016.4 |
| 20260905232817 | 87 | 115 | 6.1 | 13.9 | 0.00 | 0.00 | 0.00 | 57 | 1016.7 |
| 20260905232313 | 86 | 120 | 12.2 | 12.2 | 0.00 | 0.00 | 0.00 | 60 | 1016.4 |
| 20260905231809 | 85 | 142 | 2.6 | 9.6 | 0.00 | 0.00 | 0.00 | 63 | 1016.4 |
| 20260905231304 | 85 | 140 | 8.7 | 12.2 | 0.00 | 0.00 | 0.00 | 63 | 1016.9 |
| 20260905230800 | 86 | 153 | 7.8 | 12.2 | 0.00 | 0.00 | 0.00 | 63 | 1016.7 |
| 20260905230258 | 88 | 129 | 7.8 | 15.6 | 0.00 | 0.00 | 0.00 | 58 | 1016.7 |
| 20260905225757 | 90 | 139 | 8.7 | 14.8 | 0.00 | 0.00 | 0.00 | 55 | 1016.4 |
| 20260905225252 | 93 | 117 | 9.6 | 9.6 | 0.00 | 0.00 | 0.00 | 48 | 1016.5 |
| 20260905224752 | 92 | 137 | 5.2 | 11.3 | 0.00 | 0.00 | 0.00 | 49 | 1016.5 |
| 20260905224248 | 93 | 158 | 6.1 | 9.6 | 0.00 | 0.00 | 0.00 | 47 | 1016.2 |
| 20260905223743 | 94 | 134 | 7.8 | 10.4 | 0.00 | 0.00 | 0.00 | 46 | 1016.3 |
| 20260905223240 | 95 | 131 | 6.1 | 7.0 | 0.00 | 0.00 | 0.00 | 46 | 1016.0 |
| 20260905222736 | 94 | 126 | 6.1 | 10.4 | 0.00 | 0.00 | 0.00 | 46 | 1016.0 |
| 20260905222234 | 94 | 120 | 4.3 | 7.0 | 0.00 | 0.00 | 0.00 | 46 | 1015.7 |
| 20260905221730 | 94 | 131 | 2.6 | 8.7 | 0.00 | 0.00 | 0.00 | 45 | 1015.3 |
| 20260905221227 | 93 | 120 | 6.1 | 9.6 | 0.00 | 0.00 | 0.00 | 46 | 1015.2 |
| 20260905220723 | 95 | 106 | 2.6 | 11.3 | 0.00 | 0.00 | 0.00 | 45 | 1015.3 |
| 20260905220219 | 95 | 125 | 11.3 | 11.3 | 0.00 | 0.00 | 0.00 | 44 | 1015.4 |
| 20260905215718 | 95 | 180 | 1.7 | 7.0 | 0.00 | 0.00 | 0.00 | 44 | 1015.1 |
| 20260905215214 | 96 | 166 | 5.2 | 5.2 | 0.00 | 0.00 | 0.00 | 42 | 1015.3 |
| 20260905214710 | 97 | 210 | 4.3 | 5.2 | 0.00 | 0.00 | 0.00 | 41 | 1015.3 |
| 20260905214205 | 95 | 139 | 1.7 | 7.8 | 0.00 | 0.00 | 0.00 | 44 | 1015.5 |
| 20260905213700 | 96 | 126 | 3.5 | 4.3 | 0.00 | 0.00 | 0.00 | 43 | 1015.7 |
| 20260905213156 | 94 | 152 | 1.7 | 6.1 | 0.00 | 0.00 | 0.00 | 44 | 1016.0 |
| 20260905212651 | 94 | 144 | 3.5 | 6.1 | 0.00 | 0.00 | 0.00 | 45 | 1015.8 |
| 20260905212150 | 93 | 140 | 2.6 | 7.8 | 0.00 | 0.00 | 0.00 | 45 | 1016.4 |
| 20260905211644 | 94 | 116 | 6.1 | 7.8 | 0.00 | 0.00 | 0.00 | 44 | 1016.1 |
| 20260905211140 | 94 | 125 | 1.7 | 9.6 | 0.00 | 0.00 | 0.00 | 44 | 1016.1 |
| 20260905210637 | 95 | 135 | 7.8 | 9.6 | 0.00 | 0.00 | 0.00 | 43 | 1016.2 |